Regional Weather Roundup
Issued by NWS Memphis, TN

Home | Current Version | Previous Version | Text Only | Print | Product List | Glossary On
Versions: 1 2 3 4 5 6 7 8 9 10 11 12 13 14 15 16 17 18 19 20 21 22 23 24 25 26 27 28 29 30 31 32 33 34 35 36 37 38 39 40 41 42 43 44 45 46 47 48 49 50
000
ASUS44 KMEG 240010
RWRMEG
MEMPHIS CWA HOURLY WEATHER ROUNDUP
NATIONAL WEATHER SERVICE MEMPHIS TN
700 PM CDT WED AUG 23 2017

...WEST TENNESSEE...

CITY           SKY/WX    TMP DP  RH WIND       PRES   REMARKS
MEMPHIS INTL   CLOUDY    79  63  57 NE10      29.97F
6HR MIN TEMP:  78; 6HR MAX TEMP:  85;

NWS MEMPHIS      N/A     77 N/A N/A MISG        N/A
JACKSON        MOCLDY    77  60  55 NW5       29.98S
6HR MIN TEMP:  77; 6HR MAX TEMP:  85;

COVINGTON      CLEAR     77  63  61 N6        29.98S
SOMERVILLE     CLEAR     75  66  73 N3        29.97S
BOLIVAR        CLEAR     75  66  73 CALM      29.97S
LEXINGTON      CLEAR     73  66  78 CALM      29.97S
SELMER         CLEAR     73  64  73 CALM      29.97S
SAVANNAH       CLEAR     73  66  78 N5        29.96S
DYERSBURG      MOCLDY    77  60  55 N7        30.00S
6HR MIN TEMP:  77; 6HR MAX TEMP:  83;

UNION CITY     CLEAR     75  63  64 N5        29.98S
PARIS          CLEAR     75  61  60 NE5       29.98S
HUNTINGDON     CLEAR     75  63  64 CALM      29.98S


...EASTERN ARKANSAS...

CITY           SKY/WX    TMP DP  RH WIND       PRES   REMARKS
JONESBORO      CLEAR     77  63  61 NE7       29.99S
6HR MIN TEMP:  77; 6HR MAX TEMP:  83;

WEST MEMPHIS   CLOUDY    78  64  61 N9        29.96F
6HR MIN TEMP:  78; 6HR MAX TEMP:  85;

NEWPORT        CLEAR     75  66  73 NE6       29.99F
6HR MIN TEMP:  75; 6HR MAX TEMP:  80;

WALNUT RIDGE   CLEAR     79  63  57 CALM      29.99S
6HR MIN TEMP:  79; 6HR MAX TEMP:  81;

BLYTHEVILLE    PTCLDY    75  63  66 N7        29.99S
6HR MIN TEMP:  75; 6HR MAX TEMP:  84;

SEARCY         CLOUDY    79  68  69 NE10      30.00S
6HR MIN TEMP:  78; 6HR MAX TEMP:  81;

PINE BLUFF     PTCLDY    81  71  71 N12       29.94S
6HR MIN TEMP:  81; 6HR MAX TEMP:  87;

MONTICELLO     CLOUDY    81  73  76 CALM      29.93S
6HR MIN TEMP:  80; 6HR MAX TEMP:  91;



...NORTH MISSISSIPPI...

CITY           SKY/WX    TMP DP  RH WIND       PRES   REMARKS
TUPELO         MOCLDY    82  66  58 N10       29.94S
6HR MIN TEMP:  82; 6HR MAX TEMP:  88;

OXFORD         CLEAR     77  68  73 N3        29.97S
BATESVILLE     CLOUDY    78  71  77 CALM      29.96R
6HR MIN TEMP:  78; 6HR MAX TEMP:  86;

OLIVE BRANCH   MOCLDY   N/A N/A N/A CALM      29.97S
TUNICA           N/A     75  68  78 N8        29.97R
CLARKSDALE       N/A     82  73  74 N9        29.95S
GREENWOOD      PTCLDY    85  73  67 NE7       29.91S HX  91
6HR MIN TEMP:  85; 6HR MAX TEMP:  92;

COLUMBUS       CLEAR     83  73  70 N7        29.91S
6HR MIN TEMP:  83; 6HR MAX TEMP:  89; 6HR PCP: TRACE;

STARKVILLE     CLEAR     82  68  61 N5        29.93S
GOLDEN TRIANGL CLEAR     88  68  51 N7        29.88S HX  91


...SOUTHEAST MISSOURI...

CITY           SKY/WX    TMP DP  RH WIND       PRES   REMARKS
KENNETT        PTCLDY    79  59  50 NE6       29.98S
MALDEN         CLEAR     79  54  41 NE6       30.00F
WEST PLAINS    CLEAR     76  54  46 NE6       30.05S
6HR MIN TEMP:  76; 6HR MAX TEMP:  81;

POPLAR BLUFF   CLEAR     77  59  53 CALM      29.99S
6HR MIN TEMP:  77; 6HR MAX TEMP:  82;

CAPE GIRARDEAU CLEAR     75  56  51 NE6       30.00S
6HR MIN TEMP:  75; 6HR MAX TEMP:  82;



...NORTHWEST ALABAMA...

CITY           SKY/WX    TMP DP  RH WIND       PRES   REMARKS
MUSCLE SHOALS  CLOUDY    79  63  57 N7        29.96R
6HR MIN TEMP:  79; 6HR MAX TEMP:  87;



...MIDDLE TENNESSEE...

CITY           SKY/WX    TMP DP  RH WIND       PRES   REMARKS
NASHVILLE      CLOUDY    77  56  48 N7        29.98R
6HR MIN TEMP:  77; 6HR MAX TEMP:  84;

CLARKSVILLE    PTCLDY    76  56  49 N7        29.99S
6HR MIN TEMP:  76; 6HR MAX TEMP:  81;

COLUMBIA       CLEAR     75  61  60 N3        29.96R


...WESTERN KENTUCKY...

CITY           SKY/WX    TMP DP  RH WIND       PRES   REMARKS
PADUCAH        CLEAR     78  54  43 N7        29.98F
6HR MIN TEMP:  78; 6HR MAX TEMP:  82;

FORT CAMPBELL  PTCLDY    75  58  56 N6        29.98S
6HR MIN TEMP:  75; 6HR MAX TEMP:  80;



...CENTRAL ARKANSAS...

CITY           SKY/WX    TMP DP  RH WIND       PRES   REMARKS
LITTLE ROCK    PTCLDY    78  69  73 NE10      29.97S
6HR MIN TEMP:  78; 6HR MAX TEMP:  84;



SKY/WX REPORTED AS FAIR MEANS FEW OR NO CLOUDS BELOW
12 THOUSAND FEET.




USA.gov is the U.S. government's official web portal to all federal, state and local government web resources and services.